Weather History for Minot AFB, ND

Change the Weather History Date:

Tuesday, May 21, 2013

  Actual Average Record
Temperature  
Mean Temperature 51 °F -  
Max Temperature 58 °F 65 °F 80 °F (2002)
Min Temperature 45 °F 42 °F 32 °F (2001)
Degree Days  
Heating Degree Days 14    
Growing Degree Days 1 (Base 50)    
Moisture  
Dew Point 45 °F    
Average Humidity 83    
Maximum Humidity 99    
Minimum Humidity 67    
Precipitation  
Precipitation 0.03 in - - ()
Sea Level Pressure  
Sea Level Pressure 29.94 in    
Wind  
Wind Speed 19 mph (NE)    
Max Wind Speed 28 mph    
Max Gust Speed 38 mph    
Visibility 10 miles    
Events Rain    
Averages and records for this station are not official NWS values.
T = Trace of Precipitation, MM = Missing Value Source: NWS Daily Summary

Daily Weather History Graph

Daily Weather History Graph

Search for Another Location

Airport:

Trip Planner

Search our weather history database for the weather conditions in past years. The results will help you decide how hot, cold, wet, or windy it might be!

Date:

Astronomy

May. 21, 2013 Rise Set
Actual Time 5:57 AM CDT 9:27 PM CDT
Civil Twilight 5:19 AM CDT 10:05 PM CDT
Nautical Twilight 4:27 AM CDT 10:57 PM CDT
Astronomical Twilight 3:18 AM CDT 12:07 AM CDT
Moon 5:26 PM CDT (5/21) 3:46 AM CDT (5/21)
Length of Visible Light 16h 46m
Length of Day
15h 29m
Waxing Gibbous, 84% of the Moon is Illuminated
May 21
Waxing Gibbous
May 24
Full
May 31
Last Quarter
Jun 8
New
Jun 16
First Quarter

Hourly Weather History & Observations

Time (CDT) Temp. Windchill Dew Point Humidity Pressure Visibility Wind Dir Wind Speed Gust Speed Precip Events Conditions
12:07 AM 48.2 °F - 44.6 °F 87% 29.92 in 10.0 mi NNE 26.5 mph 33.4 mph N/A Rain Light Rain
12:08 AM 48.2 °F - 44.6 °F 87% 29.92 in 10.0 mi NNE 27.6 mph 33.4 mph N/A Rain Light Rain
12:14 AM 48.2 °F - 46.4 °F 93% 29.91 in 10.0 mi NNE 27.6 mph 35.7 mph N/A Rain Light Rain
12:18 AM 48.2 °F - 46.4 °F 93% 29.92 in 10.0 mi NNE 24.2 mph 35.7 mph N/A Rain Light Rain
12:25 AM 48.2 °F - 46.4 °F 93% 29.92 in 10.0 mi NNE 20.7 mph 38.0 mph N/A Rain Light Rain
12:28 AM 48.2 °F - 46.4 °F 93% 29.92 in 9.0 mi NNE 19.6 mph 38.0 mph N/A Rain Light Rain
12:53 AM 48.2 °F - 46.4 °F 93% 29.92 in 10.0 mi NNE 23.0 mph - N/A   Light Drizzle
12:55 AM 47.3 °F - 45.9 °F 95% 29.92 in 10.0 mi NNE 24.2 mph - 0.02 in   Light Drizzle
1:55 AM 48.0 °F - 44.1 °F 86% 29.91 in 10.0 mi NNE 20.7 mph 27.6 mph 0.00 in   Overcast
2:02 AM 48.2 °F - 42.8 °F 82% 29.91 in 10.0 mi NNE 26.5 mph 31.1 mph N/A   Overcast
2:40 AM 48.2 °F - 42.8 °F 82% 29.91 in 10.0 mi NNE 18.4 mph 31.1 mph N/A   Overcast
2:55 AM 47.8 °F - 43.0 °F 83% 29.91 in 10.0 mi NNE 17.3 mph - N/A   Overcast
3:16 AM 48.2 °F - 42.8 °F 82% 29.91 in 10.0 mi NNE 23.0 mph 29.9 mph N/A   Light Drizzle
3:48 AM 46.4 °F 40.1 °F 44.6 °F 93% 29.92 in 10.0 mi NNE 15.0 mph - N/A Rain Light Rain
3:55 AM 46.6 °F - 44.1 °F 91% 29.92 in 10.0 mi NNE 13.8 mph - 0.00 in   Light Drizzle
4:55 AM 46.8 °F - 43.2 °F 87% 29.92 in 10.0 mi North 15.0 mph - 0.00 in   Overcast
5:55 AM 46.6 °F - 41.4 °F 82% 29.92 in 10.0 mi NNE 16.1 mph - 0.00 in   Overcast
6:55 AM 45.7 °F 38.6 °F 41.9 °F 87% 29.94 in 10.0 mi NNE 17.3 mph - 0.00 in Rain Light Rain
7:55 AM 45.5 °F 38.6 °F 41.2 °F 85% 29.95 in 10.0 mi NNE 16.1 mph - 0.01 in   Overcast
8:55 AM 46.0 °F 41.0 °F 43.0 °F 89% 29.95 in 10.0 mi NNE 10.4 mph - 0.00 in   Light Drizzle
9:55 AM 46.9 °F - 43.9 °F 89% 29.96 in 10.0 mi NNE 12.7 mph - 0.00 in Rain Light Rain
10:55 AM 48.6 °F - 42.6 °F 80% 29.96 in 10.0 mi NNE 19.6 mph 27.6 mph 0.00 in   Light Drizzle
11:55 AM 51.4 °F - 43.9 °F 75% 29.94 in 10.0 mi NE 17.3 mph 26.5 mph 0.00 in   Overcast
12:30 PM 51.8 °F - 44.6 °F 76% 29.95 in 10.0 mi NE 12.7 mph - N/A   Overcast
12:55 PM 53.2 °F - 45.7 °F 76% 29.95 in 10.0 mi ENE 13.8 mph 24.2 mph 0.00 in   Overcast
1:01 PM 53.6 °F - 46.4 °F 77% 29.95 in 10.0 mi NE 13.8 mph - N/A   Overcast
1:03 PM 53.6 °F - 46.4 °F 77% 29.95 in 10.0 mi NE 12.7 mph - N/A   Overcast
1:07 PM 53.6 °F - 46.4 °F 77% 29.94 in 10.0 mi NE 15.0 mph - N/A   Overcast
1:55 PM 54.7 °F - 46.6 °F 74% 29.94 in 10.0 mi NE 11.5 mph - N/A   Overcast
2:55 PM 55.9 °F - 48.0 °F 75% 29.95 in 10.0 mi ENE 11.5 mph - N/A   Overcast
3:55 PM 57.4 °F - 47.8 °F 70% 29.96 in 10.0 mi East 12.7 mph 21.9 mph N/A   Overcast
4:55 PM 56.7 °F - 46.8 °F 69% 29.96 in 10.0 mi East 10.4 mph - N/A   Overcast
5:55 PM 56.7 °F - 47.3 °F 71% 29.97 in 10.0 mi East 4.6 mph - N/A   Overcast
6:55 PM 57.4 °F - 46.4 °F 67% 29.98 in 10.0 mi Calm Calm - N/A   Overcast
7:55 PM 57.2 °F - 48.4 °F 72% 29.99 in 10.0 mi SE 6.9 mph - N/A   Overcast
8:55 PM 55.2 °F - 47.8 °F 76% 30.01 in 10.0 mi SE 6.9 mph - N/A   Overcast
9:55 PM 53.2 °F - 49.5 °F 87% 30.01 in 10.0 mi Calm Calm - N/A   Overcast
10:55 PM 48.2 °F - 48.0 °F 99% 30.02 in 10.0 mi NW 3.5 mph - N/A   Mostly Cloudy
11:55 PM 45.7 °F 44.4 °F 45.3 °F 99% 30.02 in 9.0 mi WNW 3.5 mph - N/A   Clear